Location: Deurze
(52.9838°N, 6.6090°E)
Time: 19:14:30
(UTC+00:00)

SL-08 R/B - Pass Details

Date: 11 March 2026
Orbit: 667 x 729 km, 98.5° (Epoch: 20 April)

Event Time Altitude Azimuth Distance (km) Brightness Sun altitude
Rises 20:27:09 0° 13° (NNE) 3,034 6.8 -26.2°
Reaches altitude 10° 20:29:23 10° 11° (NNE) 2,121 6.0 -26.5°
Maximum altitude 20:33:59 70° 290° (WNW) 730 3.4 -27.1°
Enters shadow 20:34:06 69° 279° (W) 732 3.4 -27.1°
